Terug naar catalogus

STARLINK-30560

ActiefCommunicatieVLEO
NORAD 58038·PAYLOAD·🇺🇸 United States

Gelanceerd Oct 9, 2023 vanaf Vandenberg Space Force Base

Loading…

Volgende Passages (komende 24 uur)

TLE

VersSource: CelesTrak SupGP

Epoch: Sep 15, 2026, 03:24 UTC

1 58038C 23156L   26258.14215278 -.00018216  00000+0 -53804-3 0  2584
2 58038  53.1573 274.6223 0001151  92.8435 314.0178 15.34409751    19

Volg STARLINK-30560 in realtime met AllMySat

Download on the App Store